KC3ZFY-W Weather Reports


time (UTC)temp
F
wind
direction
speed
knots
gust
knots
rain 1hr
in
rain 24hr
in
rain mn
in
humidity
%
barometer
mb
20260507091511 54 5 0.0 1.7 0.00 0.29 0.15 88 1011.7
20260507091003 54 9 0.0 0.9 0.00 0.29 0.15 88 1011.7
20260507090504 54 15 0.0 0.0 0.00 0.29 0.15 87 1011.6
20260507090018 54 15 0.0 1.7 0.00 0.29 0.15 87 1011.6
20260507085504 54 15 0.0 1.7 0.00 0.29 0.15 87 1011.5
20260507085007 54 16 0.0 2.6 0.00 0.29 0.15 87 1011.5
20260507084521 54 16 0.0 2.6 0.00 0.29 0.15 87 1011.4
20260507084012 54 15 0.9 3.5 0.00 0.29 0.15 87 1011.5
20260507083503 54 5 0.0 3.5 0.00 0.29 0.15 87 1011.7
20260507083007 54 58 0.0 3.5 0.00 0.29 0.15 86 1011.5
20260507082508 54 360 0.0 6.1 0.00 0.29 0.15 86 1011.4
20260507082004 54 22 0.9 6.1 0.00 0.29 0.15 86 1011.4
20260507081510 54 38 0.9 7.0 0.00 0.29 0.15 86 1011.2
20260507081004 54 20 0.9 7.0 0.00 0.29 0.15 85 1011.1
20260507080504 55 352 0.0 8.7 0.00 0.29 0.15 86 1010.9
20260507080013 55 323 3.5 8.7 0.00 0.29 0.15 86 1010.8
20260507075503 55 33 0.9 7.0 0.00 0.29 0.15 87 1010.9
20260507075006 55 74 3.5 7.0 0.00 0.29 0.15 88 1010.7
20260507074527 55 352 1.7 5.2 0.00 0.29 0.15 88 1010.7
20260507074007 55 34 1.7 5.2 0.00 0.29 0.15 89 1010.6
20260507073508 55 32 0.9 5.2 0.00 0.29 0.15 89 1010.5
20260507073022 56 40 1.7 4.3 0.00 0.29 0.15 89 1010.4
20260507072509 56 34 0.9 3.5 0.00 0.29 0.15 89 1010.6
20260507072003 56 5 0.0 3.5 0.00 0.29 0.15 89 1010.5
20260507071507 56 293 1.7 3.5 0.00 0.29 0.15 89 1010.4
20260507071004 56 19 0.0 4.3 0.00 0.29 0.15 89 1010.3
20260507070504 56 16 2.6 4.3 0.00 0.29 0.15 89 1010.4
20260507070014 56 28 1.7 3.5 0.00 0.29 0.15 89 1010.5
20260507065505 56 15 0.9 1.7 0.00 0.29 0.15 89 1010.5
20260507065007 56 26 0.0 6.1 0.00 0.29 0.15 89 1010.5
20260507064515 56 67 0.9 7.0 0.00 0.29 0.15 89 1010.7
20260507064006 56 24 0.9 7.8 0.00 0.29 0.15 89 1010.6
20260507063507 56 23 1.7 8.7 0.00 0.29 0.15 89 1010.2
20260507063021 56 36 1.7 7.0 0.00 0.29 0.15 89 1010.3
20260507062508 56 5 2.6 7.0 0.01 0.29 0.15 89 1009.8
20260507062008 57 346 3.5 6.1 0.02 0.29 0.15 88 1010.0
20260507061531 57 360 2.6 7.0 0.04 0.29 0.15 88 1010.0
20260507061006 57 343 2.6 7.0 0.06 0.29 0.15 88 1010.3
20260507060503 57 42 1.7 6.1 0.08 0.29 0.15 88 1010.3
20260507060009 57 345 1.7 7.8 0.10 0.29 0.15 88 1010.2
20260507055504 58 350 1.7 7.8 0.13 0.29 0.15 87 1010.4
20260507055006 58 42 2.6 7.0 0.14 0.29 0.15 87 1010.3
20260507054515 58 86 2.6 7.0 0.14 0.29 0.15 87 1010.7
20260507054006 59 228 0.0 3.5 0.14 0.29 0.15 88 1010.5
20260507053506 59 27 0.9 2.6 0.15 0.29 0.15 87 1010.1
20260507053023 59 30 0.0 4.3 0.15 0.29 0.15 87 1010.0
20260507052507 59 20 0.9 4.3 0.14 0.28 0.14 86 1010.1
20260507052009 60 74 1.7 4.3 0.13 0.27 0.13 85 1010.4
20260507051524 60 33 0.0 1.7 0.11 0.25 0.11 84 1010.7
20260507051009 61 61 0.0 1.7 0.09 0.23 0.09 83 1010.4
20260507050515 61 304 0.0 1.7 0.07 0.21 0.07 82 1010.7
20260507050032 62 277 0.0 0.0 0.05 0.19 0.05 82 1010.8
20260507045503 62 278 0.0 0.0 0.02 0.16 0.02 81 1010.3
20260507045004 62 277 0.0 0.0 0.01 0.15 0.01 80 1010.2
20260507044513 62 22 0.0 1.7 0.01 0.15 0.01 79 1010.4
20260507044003 63 22 0.0 1.7 0.01 0.15 0.01 78 1010.7
20260507043506 63 323 0.0 2.6 0.00 0.14 0.00 77 1010.8
20260507043019 63 196 0.0 2.6 0.00 0.14 0.00 76 1010.6
20260507042507 63 360 0.0 4.3 0.00 0.14 0.00 77 1010.5
20260507042007 63 281 0.9 4.3 0.00 0.14 0.00 77 1010.6
20260507041522 63 31 0.0 4.3 0.00 0.14 0.00 79 1010.4
20260507041008 63 164 0.9 4.3 0.00 0.14 0.00 78 1010.3
20260507040510 63 299 0.9 6.1 0.00 0.14 0.00 79 1009.9
20260507040023 64 306 0.9 6.1 0.00 0.14 0.00 80 1009.8
20260507035508 64 338 0.9 8.7 0.00 0.14 0.14 82 1010.0
20260507035011 64 42 4.3 8.7 0.00 0.14 0.14 83 1009.9
20260507034511 64 360 1.7 8.7 0.00 0.14 0.14 84 1010.0
20260507034004 65 39 0.9 4.3 0.00 0.14 0.14 84 1010.0
20260507033503 65 340 0.0 4.3 0.00 0.14 0.14 84 1010.0
20260507033018 65 360 0.9 4.3 0.00 0.14 0.14 84 1009.9
20260507032507 65 42 0.0 1.7 0.00 0.14 0.14 84 1009.7
20260507032006 65 331 0.0 7.0 0.00 0.14 0.14 84 1009.6
20260507031519 65 292 0.0 7.0 0.00 0.14 0.14 85 1009.5
20260507031010 65 316 0.0 5.2 0.00 0.14 0.14 85 1009.5
20260507030507 65 75 0.0 5.2 0.00 0.14 0.14 85 1009.5
20260507030004 65 338 0.0 3.5 0.00 0.14 0.14 86 1009.6
20260507025503 65 15 0.0 1.7 0.00 0.14 0.14 86 1009.6
20260507025003 65 346 0.0 0.0 0.00 0.14 0.14 86 1009.4
20260507024512 65 346 0.0 0.9 0.00 0.14 0.14 86 1009.3
20260507024006 65 346 0.0 0.9 0.00 0.14 0.14 86 1009.3
20260507023504 65 352 0.0 0.9 0.00 0.14 0.14 86 1009.1
20260507023012 65 190 0.0 0.0 0.00 0.14 0.14 86 1009.0
20260507022507 65 190 0.0 0.0 0.00 0.14 0.14 86 1009.2
20260507022004 65 190 0.0 0.0 0.00 0.14 0.14 85 1009.0
20260507021518 65 190 0.0 0.0 0.00 0.14 0.14 85 1008.8
20260507021012 65 190 0.0 0.0 0.00 0.14 0.14 85 1008.9
20260507020508 65 190 0.0 0.0 0.00 0.14 0.14 85 1008.9
20260507020023 65 190 0.0 0.0 0.00 0.14 0.14 85 1009.0
20260507015506 65 190 0.0 0.0 0.00 0.14 0.14 85 1009.0
20260507015003 65 190 0.0 0.0 0.00 0.14 0.14 85 1008.9
20260507014509 65 190 0.0 0.0 0.00 0.14 0.14 84 1008.9
20260507014005 65 190 0.0 0.0 0.00 0.14 0.14 84 1009.0
20260507013503 65 190 0.0 0.0 0.00 0.14 0.14 84 1009.2
20260507013013 66 190 0.0 1.7 0.00 0.14 0.14 84 1009.3
20260507012504 66 169 0.0 0.0 0.00 0.14 0.14 83 1009.4
20260507012006 66 231 0.0 0.0 0.00 0.14 0.14 83 1009.6
20260507011516 66 231 0.0 0.0 0.00 0.14 0.14 82 1009.6
20260507011005 66 231 0.0 0.0 0.00 0.14 0.14 82 1009.6
20260507010511 66 232 0.0 0.0 0.00 0.14 0.14 82 1009.6
20260507010030 66 231 0.0 0.0 0.00 0.14 0.14 81 1009.4
20260507005508 66 232 0.0 0.0 0.00 0.14 0.14 81 1009.4
20260507005011 66 231 0.0 0.0 0.00 0.14 0.14 81 1009.2
20260507004523 67 231 0.0 0.0 0.00 0.14 0.14 81 1009.2
20260507004010 67 232 0.0 0.0 0.00 0.14 0.14 80 1008.8
20260507003503 67 231 0.0 0.0 0.00 0.14 0.14 80 1009.0
20260507003012 67 232 0.0 0.0 0.00 0.14 0.14 79 1008.9
20260507002505 68 231 0.0 0.0 0.00 0.14 0.14 79 1008.8
20260507002004 68 232 0.0 0.0 0.00 0.14 0.14 79 1008.9
20260507001514 68 231 0.0 0.0 0.00 0.14 0.14 79 1008.8
20260507001005 68 232 0.0 0.0 0.00 0.14 0.14 79 1009.0
20260507000505 68 232 0.0 0.0 0.00 0.14 0.14 77 1008.9
20260507000027 68 232 0.0 0.0 0.00 0.14 0.14 77 1008.8
20260506235506 69 231 0.0 0.0 0.00 0.14 0.14 77 1008.9
20260506235009 69 231 0.0 0.0 0.00 0.14 0.14 77 1008.7
20260506234541 69 232 0.0 0.0 0.00 0.14 0.14 77 1008.6
20260506234014 69 232 0.0 0.0 0.00 0.14 0.14 76 1008.5
20260506233509 69 232 0.0 1.7 0.00 0.14 0.14 76 1008.4
20260506233028 69 227 0.0 1.7 0.00 0.14 0.14 76 1008.4
20260506232503 69 207 0.0 0.0 0.00 0.14 0.14 76 1008.3
20260506232003 70 210 0.0 0.9 0.00 0.14 0.14 75 1008.2
20260506231511 70 188 0.0 2.6 0.00 0.14 0.14 74 1008.2
20260506231004 70 249 0.0 2.6 0.00 0.14 0.14 74 1008.1
20260506230504 70 250 0.0 1.7 0.00 0.14 0.14 74 1008.1
20260506230018 70 238 0.0 3.5 0.00 0.14 0.14 74 1008.2
20260506225505 70 244 0.0 3.5 0.00 0.14 0.14 73 1008.3
20260506225006 70 240 0.0 3.5 0.00 0.14 0.14 73 1008.3
20260506224527 70 244 0.0 2.6 0.00 0.14 0.14 73 1008.2
20260506224006 70 264 0.9 2.6 0.00 0.14 0.14 73 1008.1
20260506223507 71 180 0.0 4.3 0.00 0.14 0.14 73 1008.1
20260506223026 71 301 1.7 4.3 0.00 0.14 0.14 72 1008.1
20260506222509 71 230 0.0 5.2 0.00 0.14 0.14 73 1008.1
20260506222015 71 285 0.0 5.2 0.00 0.14 0.14 72 1008.2
20260506221511 71 239 1.7 5.2 0.00 0.14 0.14 72 1008.1
20260506221016 71 213 1.7 2.6 0.00 0.14 0.14 72 1008.2
20260506220504 71 244 0.0 3.5 0.00 0.14 0.14 72 1008.1
20260506220029 71 235 0.9 8.7 0.00 0.14 0.14 72 1008.1
20260506215504 71 350 1.7 8.7 0.00 0.14 0.14 72 1008.1
20260506215006 71 188 1.7 7.0 0.00 0.14 0.14 72 1008.2
20260506214521 71 230 1.7 7.0 0.00 0.14 0.14 72 1008.2
20260506214008 71 296 0.0 8.7 0.00 0.14 0.14 73 1008.2
20260506213507 71 310 1.7 8.7 0.00 0.14 0.14 72 1008.1
20260506213022 71 204 2.6 9.6 0.00 0.14 0.14 72 1008.0
20260506212510 71 304 2.6 7.8 0.00 0.14 0.14 72 1008.0
20260506212010 71 174 0.0 9.6 0.00 0.14 0.14 73 1007.8
20260506211527 71 236 0.0 9.6 0.00 0.14 0.14 73 1007.9
20260506211011 70 242 3.5 9.6 0.00 0.14 0.14 72 1007.9
20260506210503 70 196 1.7 7.8 0.00 0.14 0.14 73 1007.9
20260506210013 70 33 1.7 7.8 0.00 0.14 0.14 73 1007.9
20260506205505 71 252 1.7 7.0 0.00 0.14 0.14 73 1007.8
20260506205006 71 242 0.9 7.8 0.00 0.14 0.14 73 1007.7
20260506204520 70 204 2.6 10.4 0.00 0.14 0.14 73 1007.7
20260506204008 70 265 3.5 10.4 0.00 0.14 0.14 72 1007.7
20260506203515 71 300 4.3 9.6 0.00 0.14 0.14 72 1007.7
20260506203020 71 267 2.6 8.7 0.00 0.14 0.14 72 1007.8
20260506202507 71 229 2.6 8.7 0.00 0.14 0.14 72 1007.7
20260506202003 71 267 2.6 11.3 0.00 0.14 0.14 72 1007.7
20260506201508 71 70 1.7 13.9 0.00 0.14 0.14 72 1007.9
20260506201003 71 300 2.6 13.9 0.00 0.14 0.14 73 1007.7
20260506200502 71 308 1.7 7.8 0.00 0.14 0.14 73 1007.8
20260506200012 71 190 0.9 12.2 0.00 0.14 0.14 73 1007.7
20260506195504 71 180 0.9 12.2 0.00 0.14 0.14 72 1007.7
20260506195007 71 251 2.6 9.6 0.00 0.14 0.14 72 1007.7
20260506194521 71 68 0.0 8.7 0.00 0.14 0.14 72 1007.7
20260506194008 71 253 0.9 8.7 0.00 0.14 0.14 72 1007.7
20260506193506 71 218 1.7 9.6 0.00 0.14 0.14 72 1007.8
20260506193020 71 243 1.7 8.7 0.00 0.14 0.14 73 1007.8
20260506192506 70 162 0.9 8.7 0.00 0.14 0.14 74 1007.9
20260506192011 70 277 2.6 6.1 0.00 0.14 0.14 74 1008.0
20260506191526 70 257 1.7 6.1 0.00 0.14 0.14 73 1008.0
20260506191003 70 232 1.7 7.0 0.00 0.14 0.14 73 1008.0
20260506190505 70 307 0.9 8.7 0.00 0.14 0.14 74 1008.1
20260506190008 70 306 0.9 8.7 0.00 0.14 0.14 73 1008.1
20260506185504 70 300 1.7 7.8 0.00 0.14 0.14 73 1008.1
20260506185006 70 246 2.6 7.0 0.00 0.14 0.14 73 1008.2
20260506184515 70 229 1.7 8.7 0.00 0.14 0.14 73 1008.1
20260506184004 70 272 2.6 9.6 0.00 0.14 0.14 73 1008.1
20260506183507 70 179 2.6 9.6 0.00 0.14 0.14 74 1008.2
20260506183019 70 228 0.9 13.0 0.00 0.14 0.14 74 1008.5
20260506182505 69 198 2.6 13.0 0.00 0.14 0.14 74 1008.3
20260506182009 70 276 1.7 13.0 0.00 0.14 0.14 74 1008.5
20260506181523 69 142 2.6 13.0 0.00 0.14 0.14 74 1008.7
20260506181008 69 173 1.7 11.3 0.00 0.14 0.14 75 1008.7
20260506180507 69 256 1.7 10.4 0.00 0.14 0.14 76 1008.8
20260506180007 68 269 1.7 10.4 0.00 0.14 0.14 76 1008.8
20260506175504 68 132 3.5 10.4 0.00 0.14 0.14 77 1009.0
20260506175005 68 312 3.5 16.5 0.00 0.14 0.14 78 1009.0
20260506174512 67 265 0.9 16.5 0.00 0.14 0.14 79 1008.9
20260506174004 67 29 2.6 8.7 0.00 0.14 0.14 79 1009.0
20260506173504 66 240 3.5 11.3 0.00 0.14 0.14 80 1008.9
20260506173021 66 234 3.5 11.3 0.00 0.14 0.14 80 1008.9
20260506172504 66 223 2.6 13.0 0.00 0.14 0.14 80 1009.0
20260506172008 66 346 5.2 13.0 0.00 0.14 0.14 80 1009.1
20260506171525 66 232 5.2 12.2 0.00 0.14 0.14 81 1009.3
20260506171011 66 210 1.7 12.2 0.00 0.14 0.14 82 1009.2
20260506170509 65 249 5.2 12.2 0.00 0.14 0.14 83 1009.3
20260506170025 65 266 4.3 14.8 0.00 0.14 0.14 84 1009.2
20260506165508 65 264 3.5 14.8 0.00 0.14 0.14 86 1009.1
20260506165010 64 161 1.7 7.8 0.00 0.14 0.14 86 1009.2
20260506164513 64 206 3.5 9.6 0.00 0.14 0.14 86 1009.3
20260506164003 64 229 3.5 9.6 0.01 0.14 0.14 87 1009.4
20260506163506 64 245 2.6 9.6 0.01 0.14 0.14 87 1009.4
20260506163015 64 217 2.6 11.3 0.02 0.14 0.14 87 1009.3
20260506162505 64 213 3.5 11.3 0.02 0.14 0.14 87 1009.4
20260506162008 64 238 1.7 7.8 0.02 0.14 0.14 88 1009.5
20260506161522 64 112 0.9 7.8 0.03 0.14 0.14 89 1009.4
20260506161007 63 277 0.9 7.0 0.03 0.14 0.14 89 1009.3
20260506160509 63 230 0.0 9.6 0.04 0.14 0.14 89 1009.5
20260506160035 63 155 3.5 9.6 0.04 0.14 0.14 88 1009.6
20260506155508 62 211 1.7 7.0 0.04 0.14 0.14 89 1009.8
20260506155011 62 233 0.9 7.8 0.04 0.14 0.14 89 1009.9
20260506154529 62 193 2.6 7.8 0.04 0.14 0.14 88 1009.8
20260506154014 62 213 1.7 5.2 0.04 0.13 0.13 88 1009.7
20260506153507 62 183 1.7 5.2 0.05 0.13 0.13 88 1009.6
20260506153010 62 336 0.9 9.6 0.07 0.12 0.12 88 1009.7
20260506152509 62 184 0.9 9.6 0.08 0.12 0.12 87 1009.9
20260506152004 62 293 1.7 7.8 0.09 0.12 0.12 87 1010.2
20260506151518 62 203 1.7 7.8 0.09 0.11 0.11 87 1010.5
20260506151008 62 80 0.9 6.1 0.09 0.11 0.11 87 1010.5
20260506150506 62 165 0.0 7.8 0.08 0.10 0.10 87 1010.7
20260506150025 62 221 1.7 7.0 0.09 0.10 0.10 87 1010.6
20260506145512 62 238 0.9 5.2 0.09 0.10 0.10 86 1010.6
20260506145011 62 198 0.9 5.2 0.10 0.10 0.10 85 1010.6
20260506144525 62 152 1.7 3.5 0.10 0.10 0.10 85 1010.7
20260506144013 62 237 0.9 3.5 0.09 0.09 0.09 84 1010.7
20260506143512 62 283 0.0 5.2 0.08 0.08 0.08 84 1010.7
20260506143026 62 205 0.9 5.2 0.05 0.05 0.05 83 1010.7
20260506142504 63 215 2.6 5.2 0.04 0.04 0.04 83 1010.7
20260506142011 63 184 0.0 7.8 0.03 0.03 0.03 82 1010.6
20260506141516 63 122 2.6 7.8 0.02 0.02 0.02 82 1010.6
20260506141009 63 148 0.0 4.3 0.02 0.02 0.02 82 1010.6
20260506140507 64 188 0.0 4.3 0.02 0.02 0.02 80 1010.7
20260506140021 64 141 0.9 2.6 0.01 0.01 0.01 80 1010.7
20260506135507 64 148 0.0 3.5 0.01 0.01 0.01 79 1010.8
20260506135012 64 266 0.9 5.2 0.00 0.00 0.00 79 1010.8
20260506134525 64 223 0.9 5.2 0.00 0.00 0.00 78 1010.9
20260506134007 64 204 0.9 5.2 0.00 0.00 0.00 78 1011.0
20260506133509 65 239 0.0 3.5 0.00 0.00 0.00 77 1011.0
20260506133026 65 127 1.7 3.5 0.00 0.00 0.00 76 1010.9
20260506132514 65 352 0.0 2.6 0.00 0.00 0.00 76 1010.8
20260506132012 65 5 0.0 4.3 0.00 0.00 0.00 75 1010.8
20260506131541 65 94 0.9 4.3 0.00 0.00 0.00 75 1010.6
20260506131007 65 252 1.7 5.2 0.00 0.00 0.00 74 1010.6
20260506130504 65 104 0.9 6.1 0.00 0.00 0.00 74 1010.5
20260506130033 65 281 1.7 7.0 0.00 0.00 0.00 74 1010.4
20260506125507 65 144 0.0 7.0 0.00 0.00 0.00 74 1010.3
20260506125011 65 223 0.0 6.1 0.00 0.00 0.00 74 1010.3
20260506124523 65 257 0.9 8.7 0.00 0.00 0.00 73 1010.3
20260506124010 65 243 1.7 8.7 0.00 0.00 0.00 72 1010.3
20260506123509 65 246 0.0 5.2 0.00 0.00 0.00 72 1010.4
20260506123026 65 142 0.0 8.7 0.00 0.00 0.00 72 1010.4
20260506122508 65 259 0.9 8.7 0.00 0.00 0.00 72 1010.6
20260506122010 65 180 2.6 7.0 0.00 0.00 0.00 71 1010.6
20260506121527 65 140 0.9 8.7 0.00 0.00 0.00 71 1010.6
20260506121013 66 226 2.6 8.7 0.00 0.00 0.00 71 1010.6
20260506120509 66 360 2.6 8.7 0.00 0.00 0.00 71 1010.6
20260506120021 66 279 1.7 8.7 0.00 0.00 0.00 71 1010.6
20260506115510 66 264 0.9 7.8 0.00 0.00 0.00 71 1010.6
20260506115004 66 194 0.9 9.6 0.00 0.00 0.00 71 1010.5
20260506114523 66 93 1.7 9.6 0.00 0.00 0.00 71 1010.4
20260506114010 66 310 3.5 7.8 0.00 0.00 0.00 71 1010.3
20260506113507 66 256 1.7 9.6 0.00 0.00 0.00 72 1010.4
20260506113006 66 230 2.6 9.6 0.00 0.00 0.00 71 1010.3
20260506112505 65 158 2.6 7.8 0.00 0.00 0.00 72 1010.2
20260506112004 65 194 2.6 7.8 0.00 0.00 0.00 72 1010.1
20260506111507 65 277 0.9 6.1 0.00 0.00 0.00 73 1010.1
20260506111003 65 138 0.9 6.1 0.00 0.00 0.00 73 1010.0
20260506110506 65 213 0.9 6.1 0.00 0.00 0.00 73 1010.0
20260506110009 65 241 1.7 7.0 0.00 0.00 0.00 73 1010.0
20260506105504 65 161 1.7 7.0 0.00 0.00 0.00 73 1010.1
20260506105004 65 99 0.0 8.7 0.00 0.00 0.00 73 1010.1
20260506104508 64 222 0.9 8.7 0.00 0.00 0.00 73 1010.0
20260506104004 64 144 1.7 7.0 0.00 0.00 0.00 73 1009.9
20260506103503 64 297 1.7 6.1 0.00 0.00 0.00 73 1009.9
20260506103007 64 338 0.9 10.4 0.00 0.00 0.00 73 1009.9
20260506102502 64 190 0.9 10.4 0.00 0.00 0.00 73 1009.9
20260506102003 64 190 1.7 6.1 0.00 0.00 0.00 73 1009.9
20260506101512 64 281 0.9 7.0 0.00 0.00 0.00 73 1009.8
20260506101005 64 239 1.7 9.6 0.00 0.00 0.00 73 1009.8
20260506100506 64 239 0.9 9.6 0.00 0.00 0.00 73 1009.8
20260506100012 64 194 0.9 9.6 0.00 0.00 0.00 73 1009.8
20260506095508 64 243 1.7 9.6 0.00 0.00 0.00 73 1009.9
20260506095005 64 202 0.9 11.3 0.00 0.00 0.00 73 1009.9
20260506094510 64 36 1.7 11.3 0.00 0.00 0.00 72 1009.9
20260506094007 64 225 2.6 10.4 0.00 0.00 0.00 72 1009.9
20260506093504 65 175 1.7 10.4 0.00 0.00 0.00 72 1010.0
20260506093014 65 234 1.7 7.0 0.00 0.00 0.00 72 1010.0
20260506092507 65 263 0.9 5.2 0.00 0.00 0.00 72 1010.0
20260506092004 65 97 1.7 5.2 0.00 0.00 0.00 72 1010.1